Weather History for Anchorage, AK

Change the Weather History Date:

Saturday, March 2, 2013

  Actual Average Record
Temperature  
Mean Temperature 28 °F 23 °F  
Max Temperature 33 °F 30 °F 48 °F (1938)
Min Temperature 23 °F 16 °F -22 °F (1956)
Degree Days  
Heating Degree Days 37    
Month to date heating degree days 74  
Since 1 July heating degree days 7519  
Cooling Degree Days 0    
Month to date cooling degree days 0  
Year to date cooling degree days 0  
Moisture  
Dew Point 25 °F    
Average Humidity 79    
Maximum Humidity 92    
Minimum Humidity 66    
Precipitation  
Precipitation 0.00 in 0.02 in 0.47 in (1959)
Month to date precipitation 0.02 0.04  
Year to date precipitation 2.47 1.49  
Snow  
Snow 0.00 in 0.40 in 13.00 in (1959)
Month to date snowfall 0.5 0.7  
Since 1 July snowfall 56.6 61.0  
Snow Depth 18.00 in    
Sea Level Pressure  
Sea Level Pressure 30.00 in    
Wind  
Wind Speed 3 mph (NE)    
Max Wind Speed 7 mph    
Max Gust Speed -    
Visibility 4 miles    
Events Fog    
T = Trace of Precipitation, MM = Missing Value Source: NWS Daily Summary

Daily Weather History Graph

Daily Weather History Graph

Search for Another Location

Airport:

Trip Planner

Search our weather history database for the weather conditions in past years. The results will help you decide how hot, cold, wet, or windy it might be!

Date:

Astronomy

Mar. 02, 2013 Rise Set
Actual Time 7:56 AM AKST 6:29 PM AKST
Civil Twilight 7:12 AM AKST 7:12 PM AKST
Nautical Twilight 6:23 AM AKST 8:02 PM AKST
Astronomical Twilight 5:32 AM AKST 8:54 PM AKST
Moon 12:47 AM AKST (3/2) 8:51 AM AKST (3/2)
Length of Visible Light 11h 59m
Length of Day
10h 32m
Waning Gibbous, 72% of the Moon is Illuminated
Mar 2
Waning Gibbous
Mar 4
Last Quarter
Mar 11
New
Mar 19
First Quarter
Mar 27
Full

Hourly Weather History & Observations

Time (AKST) Temp. Windchill Dew Point Humidity Pressure Visibility Wind Dir Wind Speed Gust Speed Precip Events Conditions
12:40 AM 26.6 °F 21.2 °F 23.0 °F 86% 29.94 in 0.5 mi SSE 4.6 mph - N/A   Overcast
12:46 AM 24.8 °F 20.5 °F 21.2 °F 86% 29.94 in 0.5 mi SSE 3.5 mph - N/A Fog Light Freezing Fog
12:53 AM 24.8 °F - 21.2 °F 86% 29.95 in 0.5 mi Calm Calm - N/A Fog Light Freezing Fog
1:17 AM 26.6 °F - 24.8 °F 93% 29.95 in 1.5 mi Calm Calm - N/A   Overcast
1:53 AM 27.0 °F 23.0 °F 25.0 °F 92% 29.96 in 1.5 mi SSE 3.5 mph - N/A   Overcast
2:13 AM 28.4 °F 23.3 °F 26.6 °F 93% 29.96 in 2.5 mi SSE 4.6 mph - N/A   Overcast
2:30 AM 28.4 °F - 26.6 °F 93% 29.96 in 2.5 mi Calm Calm - N/A   Overcast
2:34 AM 28.4 °F - 26.6 °F 93% 29.96 in 4.0 mi Calm Calm - N/A   Overcast
2:53 AM 28.0 °F - 26.1 °F 92% 29.97 in 4.0 mi Calm Calm - N/A   Overcast
3:05 AM 28.4 °F - 26.6 °F 93% 29.97 in 5.0 mi Calm Calm - N/A   Overcast
3:53 AM 27.0 °F - 24.1 °F 89% 29.98 in 5.0 mi Calm Calm - N/A   Overcast
4:53 AM 27.0 °F - 24.1 °F 89% 29.98 in 5.0 mi Calm Calm - N/A   Overcast
5:53 AM 27.0 °F - 24.1 °F 89% 29.97 in 4.0 mi Calm Calm - N/A   Overcast
6:42 AM 28.4 °F 22.2 °F 24.8 °F 86% 29.96 in 2.5 mi West 5.8 mph - N/A   Mostly Cloudy
6:44 AM 28.4 °F 22.2 °F 24.8 °F 86% 29.96 in 2.5 mi West 5.8 mph - N/A   Mostly Cloudy
6:53 AM 28.9 °F 21.9 °F 26.1 °F 89% 29.98 in 2.5 mi West 6.9 mph - N/A   Mostly Cloudy
7:19 AM 28.4 °F 21.2 °F 26.6 °F 93% 29.98 in 1.0 mi NNW 6.9 mph - N/A   Mostly Cloudy
7:53 AM 28.0 °F 22.8 °F 26.1 °F 92% 29.99 in 1.0 mi NE 4.6 mph - N/A   Mostly Cloudy
8:02 AM 28.4 °F 23.3 °F 24.8 °F 86% 29.98 in 0.5 mi East 4.6 mph - N/A   Overcast
8:53 AM 28.0 °F 24.2 °F 26.1 °F 92% 29.99 in 0.2 mi ENE 3.5 mph - N/A   Overcast
9:00 AM 28.4 °F - 26.6 °F 93% 29.99 in 0.5 mi Calm Calm - N/A   Overcast
9:11 AM 28.4 °F 23.3 °F 26.6 °F 93% 29.99 in 0.5 mi NNE 4.6 mph - N/A   Overcast
9:27 AM 28.4 °F - 26.6 °F 93% 29.99 in 0.2 mi Calm Calm - N/A   Mist
9:49 AM 28.4 °F - 26.6 °F 93% 30.00 in 0.2 mi Calm Calm - N/A   Mist
9:53 AM 28.9 °F - 27.0 °F 92% 30.01 in 0.2 mi Calm Calm - N/A   Mist
10:18 AM 28.4 °F - 26.6 °F 93% 30.00 in 0.5 mi Calm Calm - N/A Fog Light Freezing Fog
10:26 AM 28.4 °F 24.6 °F 26.6 °F 93% 30.00 in 0.2 mi NE 3.5 mph - N/A Fog Light Freezing Fog
10:39 AM 28.4 °F - 26.6 °F 93% 30.00 in 0.2 mi Calm Calm - N/A Fog Light Freezing Fog
10:49 AM 28.4 °F 24.6 °F 26.6 °F 93% 30.01 in 0.2 mi NE 3.5 mph - N/A Fog Light Freezing Fog
10:53 AM 28.9 °F 25.2 °F 26.1 °F 89% 30.01 in 0.2 mi Variable 3.5 mph - N/A Fog Light Freezing Fog
11:08 AM 28.4 °F 24.6 °F 26.6 °F 93% 30.01 in 0.2 mi NE 3.5 mph - N/A Fog Light Freezing Fog
11:18 AM 28.4 °F - 26.6 °F 93% 30.01 in 0.2 mi Calm Calm - N/A Fog Light Freezing Fog
11:53 AM 28.9 °F 25.2 °F 26.1 °F 89% 30.02 in 0.2 mi NNE 3.5 mph - N/A Fog Light Freezing Fog
12:53 PM 28.0 °F 22.8 °F 25.0 °F 88% 30.03 in 0.2 mi NE 4.6 mph - N/A Fog Light Freezing Fog
1:13 PM 28.4 °F - 24.8 °F 86% 30.02 in 0.5 mi Calm Calm - 0.00 in Fog Light Freezing Fog
1:20 PM 28.4 °F - 24.8 °F 86% 30.02 in 10.0 mi Calm Calm - 0.00 in   Mostly Cloudy
1:53 PM 28.0 °F 22.8 °F 25.0 °F 88% 30.03 in 10.0 mi North 4.6 mph - 0.00 in   Mostly Cloudy
2:28 PM 28.4 °F 22.2 °F 24.8 °F 86% 30.02 in 10.0 mi NE 5.8 mph - N/A   Clear
2:53 PM 30.0 °F 25.2 °F 24.1 °F 79% 30.02 in 10.0 mi NE 4.6 mph - N/A   Clear
3:53 PM 32.0 °F 26.4 °F 24.1 °F 73% 30.00 in 10.0 mi NNE 5.8 mph - N/A   Scattered Clouds
4:53 PM 32.0 °F 26.4 °F 23.0 °F 69% 30.01 in 10.0 mi NE 5.8 mph - N/A   Clear
5:53 PM 30.0 °F 25.2 °F 21.9 °F 72% 30.00 in 10.0 mi NE 4.6 mph - N/A   Scattered Clouds
6:53 PM 27.0 °F 20.5 °F 21.9 °F 81% 30.02 in 10.0 mi NE 5.8 mph - N/A   Scattered Clouds
7:53 PM 27.0 °F 23.0 °F 23.0 °F 85% 30.04 in 10.0 mi NNW 3.5 mph - N/A   Scattered Clouds
8:53 PM 28.4 °F 21.2 °F 24.8 °F 86% 30.05 in 10.0 mi North 6.9 mph - N/A   Scattered Clouds
9:53 PM 28.0 °F - 25.0 °F 88% 30.06 in 10.0 mi Calm Calm - N/A   Scattered Clouds
10:53 PM 28.0 °F - 25.0 °F 88% 30.08 in 10.0 mi Calm Calm - N/A   Partly Cloudy
11:53 PM 25.0 °F 19.3 °F 21.9 °F 88% 30.08 in 10.0 mi NNW 4.6 mph - N/A   Scattered Clouds